Terminal Aerodrome Forecast
Issued by NWS Huntsville, AL

Home | Current Version | Previous Version | Text Only | Print | Product List | Glossary On
Versions: 1 2 3 4 5 6 7 8 9 10 11 12 13 14 15 16 17 18 19 20 21 22 23 24 25 26 27 28 29 30 31
000
FTUS44 KHUN 011734
TAFMSL
TAF
KMSL 011734Z 0118/0218 22008KT P6SM FEW040 SCT150
     FM020200 VRB03KT P6SM SCT120
      TEMPO 0210/0214 5SM BR
     FM021500 23005KT P6SM SCT040=

USA.gov is the U.S. government's official web portal to all federal, state and local government web resources and services.